Regional Weather Roundup
Issued by NWS Newport/Morehead, NC

Current Version | Previous Version | Graphics & Text | Print | Product List | Glossary Off
Versions: 1 2 3 4 5 6 7 8 9 10 11 12 13 14 15 16 17 18 19 20 21 22 23 24 25 26 27 28 29 30 31 32 33 34 35 36 37 38 39 40 41 42 43 44 45 46 47 48 49 50

000
ASUS42 KMHX 220825
RWRMHX
WEATHER ROUNDUP FOR EASTERN NORTH CAROLINA
NATIONAL WEATHER SERVICE NEWPORT/MOREHEAD CITY NC
400 AM EDT THU JUN 22 2017

NOTE: "FAIR" INDICATES FEW OR NO CLOUDS BELOW 12,000 FEET
WITH NO SIGNIFICANT WEATHER AND/OR OBSTRUCTIONS TO VISIBILITY

NCZ015>017-031-032-045>047-102-103-220900-
NORTH COAST

CITY           SKY/WX    TMP DP  RH WIND       PRES   REMARKS
EDENTON        CLOUDY    76  73  88 SW8       30.07R
ELIZABETH CITY MOCLDY    74  74 100 SW8       30.05S
KITTY HAWK     MOSUNNY   74  73  95 CALM      30.04S
MANTEO         PTCLDY    74  72  92 W7        30.06S

$$

NCZ045>047-081-094-103-104-220900-
CENTRAL COAST

CITY           SKY/WX    TMP DP  RH WIND       PRES   REMARKS
FRISCO         PTCLDY    77  74  90 W7        30.07S

$$

NCZ095-097-098-100-101-220900-
SOUTHERN COAST

CITY           SKY/WX    TMP DP  RH WIND       PRES   REMARKS
BEAUFORT       CLOUDY    79  78  97 SW9       30.08S
CEDAR ISLAND   NOT AVBL
JACKSONVILLE   CLOUDY    74  74 100 CALM      30.08S
PINEY ISLAND   CLOUDY   N/A N/A N/A SW5       30.07S
WILMINGTON     MOCLDY    76  75  97 SW3       30.09R


$$

NCZ011>013-027>030-043-044-078>080-089-090>093-098-220900-
COASTAL PLAIN

CITY           SKY/WX    TMP DP  RH WIND       PRES   REMARKS
AHOSKIE          N/A     70  70  99 CALM      30.06R
CLINTON        MOCLDY    73  73 100 CALM      30.09S FOG
ELIZABETHTOWN  NOT AVBL
GOLDSBORO      CLOUDY    74  74 100 SW7       30.07S
GREENVILLE     MOCLDY    72  72 100 CALM      30.09R
HAVELOCK       CLOUDY    75  74  96 SW7       30.09R
KENANSVILLE    CLOUDY    73  72  94 CALM      30.09S
KINSTON        CLOUDY    73  73  97 SW3       30.09S
NEW BERN       CLOUDY    74  74 100 SW5       30.09R
RICHLANDS      CLOUDY    72  72 100 CALM      30.09S
ROCKY MOUNT    CLOUDY    73  73 100 SW8       30.08R
WASHINGTON     CLOUDY    73  72  98 SW3       30.08R
WHITEVILLE     PTCLDY    74  73  96 CALM      30.08S

$$

AMZ130-135-150-152-154-156-158-170-250-252-270-ANZ085-086-088-633-658-670-220900-
MARINE OBSERVATIONS

STATION/POSITION TIME  TEMP    WIND        PRES    WAVE   SWELL
                       AIR SEA DIR/SP/G            HT/PER HT/PER
                 (UTC) (F)     (DEG/KT/KT) (MB)    (FT/S) (FT/S)
CHESAPEAKE LIGHT NOT AVBL
64 E VA BEACH    0750   72 70  230/ 12/ 14 1017.4    3/ 5   2/ 7
DUCK             0800   76 62  250/ 13/ 16 1017.1
2 E DUCK         NOT AVBL
OREGON INLET     0800   76 78  230/ 13/ 14 1017.6
13E OREGON INLT  0748      70                N/A     3/ 5   2/ 7
HATTERAS CG      0800   77 78  250/  7/  8 1018.1
DIAMOND BUOY     0750   79 80  240/ 14/ 16 1018.1    3/ 3   2/ 7
CAPE LOOKOUT     0800   78     230/  5/  7 1018.3
BEAUFORT LAB     0800   78 77  240/  3/  7 1018.0
30 SE NEW RVR IN 0708   78 80  230/ 12/ 16 1018.8
30 SE NEW RVR IN 0813      80                N/A     3/ 6
27 SE WRIGHTSVLE 0708   78 79  230/  8/ 12 1018.5
5 SE WRIGHTSVLE  0708   79 78  220/  8/ 12 1018.5
225 S CAPE HAT   0750   81 82  200/ 14/ 16 1020.3    4/ 7   3/ 7
41 SE CHARLESTON 0810   80 81  210/  8/ 12 1018.3

$$




USA.gov is the U.S. government's official web portal to all federal, state and local government web resources and services.